Overview Statistics Trail Chart Weather Telemetry Raw packets
 

This is the latest recevied weather packets stored in our database for station/object W6TKD-13. If no packets are shown the sender has not sent any weather packets the latest 10 day(s).

<< 7 8 9 10 11 12 13 >>
Time Temp. Humidity Pressure Rain* Wind** Luminosity Snow
1788050658 31.67° C 13% 1013.1 hPa 0 mm - - -
1788049992 32.78° C 13% 1013 hPa 0 mm - - -
1788049325 33.89° C 12% 1013 hPa 0 mm - - -
1788048669 35.56° C 12% 1013.1 hPa 0 mm - - -
1788047991 37.22° C 11% 1013 hPa 0 mm - - -
1788046657 42.22° C 10% 1012.9 hPa 0 mm - - -
1788045989 42.78° C 10% 1012.9 hPa 0 mm - - -
1788045323 42.78° C 11% 1013 hPa 0 mm - - -
1788044655 42.78° C 11% 1013.1 hPa 0 mm - - -
1788043988 43.33° C 11% 1013.2 hPa 0 mm - - -
1788043322 43.89° C 12% 1013.2 hPa 0 mm - - -
1788042655 43.33° C 12% 1013.4 hPa 0 mm - - -
1788041991 43.89° C 12% 1013.5 hPa 0 mm - - -
1788041321 44.44° C 11% 1013.6 hPa 0 mm - - -
1788040654 44.44° C 12% 1013.7 hPa 0 mm - - -
1788039986 45° C 12% 1013.9 hPa 0 mm - - -
1788039319 45° C 12% 1013.8 hPa 0 mm - - -
1788038652 44.44° C 12% 1014 hPa 0 mm - - -
1788037986 44.44° C 12% 1014.2 hPa 0 mm - - -
1788037319 43.89° C 13% 1014.3 hPa 0 mm - - -
1788036652 43.33° C 13% 1014.3 hPa 0 mm - - -
1788035986 42.22° C 14% 1014.3 hPa 0 mm - - -
1788035318 40.56° C 15% 1014.4 hPa 0 mm - - -
1788034651 38.33° C 17% 1014.5 hPa 0 mm - - -
1788033984 35.56° C 19% 1014.7 hPa 0 mm - - -

* Rain since midnight (hover to see other rain measurements)
** Current wind speed in m/s (hover to see current wind gust speed)